Volver al catálogo

QIANFAN-17

ActivoComunicacionesPO
NORAD 60395·PAYLOAD·🇨🇳 China

Lanzado Aug 6, 2024 desde Taiyuan Satellite Launch Center

Loading…

Próximos Pases (próximas 24 horas)

TLE

ActualizadoSource: Space-Track

Época: Sep 14, 2026, 13:03 UTC

1 60395U 24140S   26257.54439311  .00000018  00000-0  96289-5 0  9994
2 60395  88.9676 270.8345 0016740 124.8250 235.4479 13.51021514105371

Sigue QIANFAN-17 en tiempo real con AllMySat

Download on the App Store